Regional Weather Roundup
Issued by NWS

Home | Current Version | Previous Version | Graphics & Text | Print | Product List | Glossary On
Versions: 1 2 3 4 5 6 7 8 9 10 11 12 13 14 15 16 17 18 19 20 21 22 23 24 25 26 27
000
ASUS45 KCYS 231410
RWRWY

WYOMING REGIONAL WEATHER ROUNDUP
NATIONAL WEATHER SERVICE CHEYENNE WY
700 AM MST THU FEB 23 2017

NOTE:  "FAIR" INDICATES FEW OR NO CLOUDS BELOW 12,000 FEET
WITH NO SIGNIFICANT WEATHER AND/OR OBSTRUCTIONS TO VISIBILITY.

WYZ001-231500-
YELLOWSTONE NATIONAL PARK

CITY           SKY/WX    TMP DP  RH WIND       PRES   REMARKS
LK YELLOWSTONE   N/A     14   7  73 VRB5      29.64R WCI   6
W YELLOWSTONE  NOT AVBL

$$
WYZ002>013-054>058-071-098>099-231500-
NORTHERN WYOMING

CITY           SKY/WX    TMP DP  RH WIND       PRES   REMARKS
JACKSON        CLOUDY    19  16  86 NE18      29.58S WCI   4
CODY           FLURRIES  24  21  88 N20G25    29.76F WCI  10
GREYBULL       FAIR      30  22  72 NW16      29.69F WCI  19
WORLAND        CLOUDY    29  26  89 NW9       29.69F WCI  20
SHERIDAN       CLOUDY    28  26  92 NE9       29.83S WCI  19
BUFFALO        CLOUDY    26  22  84 N12       29.77F WCI  16
GILLETTE         N/A     27  24  89 NE16      29.77F WCI  15
HULETT         CLOUDY    28  27  93 MISG      29.81S FOG
NEWCASTLE      FAIR      28  28 100 CALM      29.74F

$$
WYZ014>020-022>026-101>103-231500-
CENTRAL WYOMING

CITY           SKY/WX    TMP DP  RH WIND       PRES   REMARKS
BIG PINEY      LGT SNOW  20  18  92 NW13      29.52F WCI   7
PINEDALE       CLOUDY    19  12  73 NW10      29.51S WCI   8
DUBOIS         CLOUDY    21  18  86 SE8       29.56F FOG     WCI  12
LANDER         LGT SNOW  25  24  96 N14       29.61R VSB 3/4 WCI  13
RIVERTON       SNOW      25  24  96 N18       29.61S VSB 1/2 WCI  11
CASPER         SNOW      23  22  96 NE28      29.63F VSB 1/2 WCI   6
DOUGLAS        HVY SNOW  24  22  91 E12       29.69F VSB 1/4 WCI  13

$$
WYZ021-027>030-104>119-231500-
SOUTHERN WYOMING

CITY           SKY/WX    TMP DP  RH WIND       PRES   REMARKS
EVANSTON       CLOUDY    17  12  80 W14       29.57S WCI   3
FORT BRIDGER   LGT SNOW  20  20 100 W20       29.58S WCI   4
ROCK SPRINGS   LGT SNOW  23  20  88 VRB5      29.49R VSB 3/4 WCI  17
DIXON            N/A     27  25  89 SW21      29.46F WCI  14
RAWLINS        HVY SNOW  22  19  89 NE28G35   29.42F VSB 1/4 WCI   4
SARATOGA       LGT SNOW  28  28 100 SE20G25   29.41R WCI  15
LARAMIE        CLOUDY    24  19  81 E24G36    29.45F WCI   8
CHEYENNE       LGT SNOW  27  25  92 E15       29.57F FOG     WCI  15
TORRINGTON     SNOW      27  25  92 E15       29.69S VSB 1/2 WCI  15
PINE BLUFFS    CLOUDY    28  28 100 NE10G20   29.62F WCI  19

$$




USA.gov is the U.S. government's official web portal to all federal, state and local government web resources and services.